User: anonymous   Login
Location: Poprad
(49.0500°N, 20.3000°E)
Time: 02:07:41
(UTC+02:00)
Language:

NOAA 19 - Orbit

View from above orbital plane
View from above orbital plane
View from above satellite
View from above satellite

Ground track
Ground track

The orbit data is extracted from the following two-line orbital elements,

1 33591U 09005A   24114.56471602  .00000543  00000-0  31559-3 0  9996
2 33591  99.0519 169.7755 0014873  87.4757 272.8117 14.12978197783653
Epoch (UTC): 23 April 2024 13:33:11
Eccentricity: 0.0014873
inclination: 99.0519°
perigee height: 838 km
apogee height: 860 km
right ascension of ascending node: 169.7755°
argument of perigee: 87.4757°
revolutions per day: 14.12978197
mean anomaly at epoch: 272.8117°
orbit number at epoch: 78365

The dashed part of the orbit path shows where the satellite is in the earth's shadow,  

DLR